www.pogodaiklimat.ru

Погода и климат >> Архив погоды >> Канада >> Baker Lake Airport


ПОГОДА в Baker Lake Airport

  • Прогноз погоды в Baker Lake Airport
  • Монитор погоды в Baker Lake Airport
  • Климат города

АРХИВ ПОГОДЫ в Baker Lake Airport

Время (UTC), дата Ветер
(напр.,м/с)
 
Видим.   Явления Облачность Т
(С)
Тd
(С)
f
(%)
Тe
(С)
Тes
(С)
Комфортность P
(гПа)
Po
(гПа)
Тmin
(С)
Tmax
(С)
R
(мм)
R24
(мм)
S
(см)
00 20.05 С 10 24 км сильный позёмок {снег} 6/6 600 м
[Sc]
-8.5 -11.4 80 -19 -19 1015.8 1013.4 -8.9 +0.2 0.0 23
03 20.05 СЗ 8 24 км 10/10 300 м
[]
-9.1 -11.8 81 -19 -19 1016.4 1014.0
06 20.05 С 9 24 км слабый снег 10/10 300 м
[Sc]
-10.6 -13.7 78 -21 -21 1017.3 1014.9 -10.6 +0.2 0.2 193
09 20.05 СЗ 8 30 км 10/10 300 м
[]
-10.9 -13.7 80 -21 -21 1017.4 1015.0
12 20.05 СЗ 7 24 км слабый снег 10/10 300 м
[Sc]
-10.4 -13.2 80 -20 -20 1017.1 1014.7 -11.1 +0.2 0.0 25
15 20.05 СЗ 10 8000 м 10/10 1000 м
[]
-9.2 -12.0 80 -20 -20 1017.1 1014.7
18 20.05 СЗ 10 30 км слабый снег 9/9 1000 м
[Sc]
-7.8 -11.0 78 -18 -18 1016.9 1014.5 -11.1 -7.6 0.0 25
21 20.05 СЗ 9 40 км 9/9 300 м
[]
-6.2 -9.9 75 -16 -16 1017.3 1014.9
00 21.05 СЗ 8 40 км {снег} 9/9 300 м
[Sc]
-6.7 -9.9 78 -16 -16 1017.6 1015.2 -11.1 -5.9 0.0 25
03 21.05 З 7 30 км 10/10 600 м
[]
-7.7 -10.5 80 -16 -16 1017.0 1014.6
06 21.05 СЗ 5 24 км слабый снег 10/10 300 м
[Sc]
-8.1 -10.7 82 -16 -16 1017.5 1015.1 -11.1 -5.9 0.0 21
09 21.05 СЗ 6 30 км 10/10 300 м
[]
-8.6 -11.0 83 -17 -17 1018.2 1015.8
12 21.05 СЗ 5 30 км слабый снег 10/10 600 м
[Sc]
-8.0 -10.5 82 -16 -16 1019.4 1017.0 -8.7 -5.9 0.0 25
15 21.05 СЗ 5 40 км 10/10 1500 м
[]
-6.4 -9.5 79 -14 -14 1020.3 1017.9
18 21.05 С 4 40 км слабый снег 10/10 300 м
[Sc]
-4.5 -8.5 74 -11 -11 1021.1 1018.7 -8.7 -4.2 0.0 25
21 21.05 С 6 40 км 10/10 600 м
[]
-3.6 -8.6 68 -11 -11 1022.0 1019.6
00 22.05 СЗ 5 40 км слабый снег 9/9 600 м
[Sc]
-4.5 -9.5 68 -11 -11 1022.3 1019.9 -8.7 -3.4 0.0 25
03 22.05 СЗ 3 30 км 9/9 600 м
[]
-5.3 -8.8 76 -10 -10 1022.8 1020.4
06 22.05 З 3 30 км слабый снег 10/10 600 м
[Sc]
-5.9 -8.6 81 -12 -12 1023.2 1020.8 -8.7 -3.4 0.0 7
09 22.05 З 4 30 км 10/10 600 м
[]
-6.4 -9.5 79 -13 -13 1023.3 1020.9
12 22.05 З 3 30 км слабый снег 10/10 600 м
[Sc]
-5.7 -9.6 74 -11 -11 1023.7 1021.3 -6.6 -3.4 0.0 25
15 22.05 ЮЗ 4 30 км 10/10 600 м
[]
-4.9 -8.9 74 -11 -11 1023.1 1020.7
18 22.05 Ю 4 40 км слабый снег 10/10 600 м
[Sc]
-4.5 -9.0 71 -10 -10 1022.0 1019.6 -6.6 -4.3 0.0 25
21 22.05 Ю 6 40 км 10/10 300 м
[]
-4.2 -8.0 75 -11 -11 1020.4 1018.0
00 23.05 ЮВ 8 1600 м слабый снег 10/10 600 м
[Sc]
-5.1 -6.5 90 -14 -14 1017.7 1015.3 -6.6 -3.9 0.3 25
03 23.05 ЮВ 8 2400 м 10/10 600 м
[]
-5.3 -6.3 93 -14 -14 1015.3 1012.9
06 23.05 В 10 16 км слабый снег 10/6 300 м
[Sc Ac As]
-5.2 -6.4 91 -15 -15 1012.7 1010.3 -6.6 -3.9 4 61
09 23.05 В 11 16 км 10/10 200 м
[]
-4.9 -6.0 92 -15 -15 1010.0 1007.6
12 23.05 В 10 30 км слабый снег 10/10 200 м
[Sc]
-4.0 -5.1 92 -13 -13 1008.5 1006.1 -5.4 -3.9 0.0 29
15 23.05 В 9 24 км 10/10 200 м
[]
-2.3 -3.7 90 -11 -11 1007.3 1004.9
18 23.05 ЮВ 9 24 км {снег} 10/10 100 м
[Sc]
-0.9 -2.5 89 -9 -9 1006.9 1004.5 -5.4 -0.9 0.0 30
21 23.05 В 5 8000 м 9/9 300 м
[]
-0.3 -1.6 91 -7 -6 1007.6 1005.2
00 24.05 В 3 40 км {дождь, снег} 8/8 200 м
[Sc]
-0.3 -1.6 91 -5 -4 1008.0 1005.6 -5.2 0.0 0.0 30
03 24.05 В 2 30 км 10/10 200 м
[]
-0.4 -1.4 93 -4 -4 1008.1 1005.7
06 24.05 В 2 24 км 10/10 100 м
[Sc]
-1.0 -1.6 96 -5 -5 1008.7 1006.3 -5.2 0.0 91
09 24.05 С 1 30 км 10/10 200 м
[]
-1.3 -2.4 92 -2 -2 1010.1 1007.7
12 24.05 С 3 16 км слабая переохл. морось (гололёд) {снег} 10/10 300 м
[Frnb]
-1.3 -2.2 94 -6 -6 1012.0 1009.6 -1.5 0.0 0.0 27
15 24.05 С 6 40 км 10/10 300 м
[]
+0.1 -1.7 88 -7 -7 1013.6 1011.2
18 24.05 С 6 40 км 10/10 300 м
[Sc]
+0.8 -2.5 79 -6 -6 1016.4 1014.0 -1.5 +1.5 30
21 24.05 С 10 40 км 9/9 300 м
[]
-1.0 -3.8 81 -9 -9 1019.0 1016.6
00 25.05 С 10 40 км 9/9 300 м
[Sc]
-4.4 -7.5 79 -14 -14 1021.0 1018.6 -4.4 +1.5 30
03 25.05 С 9 24 км 8/8 300 м
[]
-6.3 -9.4 79 -16 -16 1022.5 1020.1
06 25.05 С 6 16 км 5/5 300 м
[Sc]
-9.2 -11.6 83 -17 -17 1024.2 1021.8 -9.2 +1.5 221
09 25.05 С 8 24 км ясно -13.0 -15.4 82 -23 -23 1023.6 1021.2
12 25.05 С 5 24 км ясно -11.7 -14.8 78 -20 -19 1024.9 1022.5 -13.2 +1.5 30
15 25.05 СВ 2 40 км ясно -8.3 -12.2 73 -13 -5 1024.0 1021.6
18 25.05 В 2 40 км 8/8 1500 м
[Sc Ac trans Cc]
-7.0 -10.3 77 -11 -8 1023.2 1020.8 -13.2 -6.7 30
21 25.05 ЮВ 5 40 км 10/0
[]
-4.9 -7.8 80 -12 -9 1021.2 1018.8
00 26.05 ЮВ 5 40 км 10/10 300 м
[Sc]
-3.1 -5.2 85 -10 -10 1019.1 1016.7 -13.2 -3.1 30
03 26.05 ЮВ 8 24 км 10/10 300 м
[]
-2.4 -3.9 89 -11 -11 1017.2 1014.8
06 26.05 ЮВ 8 1200 м снежные зёрна 10/10 300 м
[St]
-3.4 -4.0 96 -12 -12 1013.9 1011.5 -13.2 -2.2 0.0 61
09 26.05 ЮВ 11 1200 м 10/10 200 м
[]
-2.9 -3.6 95 -12 -12 1011.5 1009.1
12 26.05 ЮВ 9 6000 м слабый дождь со снегом 10/10 300 м
[Sc]
-2.5 -3.4 94 -11 -11 1008.7 1006.3 -3.4 -2.2 0.2 30
15 26.05 ЮВ 8 30 км 10/10 200 м
[]
-0.7 -2.0 91 -8 -8 1005.7 1003.3
18 26.05 Ю 8 24 км {снег, дождь} 10/10 200 м
[Frnb]
+0.5 -1.0 90 -7 -7 1003.1 1000.7 -7.1 +0.7 0.0 28
21 26.05 Ю 6 24 км 10/10 100 м
[]
+0.6 -0.5 92 -6 -6 1001.9 999.5

 

Местоположение метеостанции Baker Lake Airport (Канада): широта 64.30 долгота -96.06 высота над уровнем моря 18 м.

В архиве по умолчанию представлена погода в Baker Lake Airport за последнюю неделю. Архивные данные за месяц целиком и за предыдущие месяцы, начиная с января 2011 года, Вы можете получить, выбрав интересующий диапазон дат из раскрывающегося списка и нажав кнопку "Ввод!".


*Определитесь, кто Вы:
робот инопланетянин человек

Внимание! Время в таблицах - всемирное. Для получения местного времени необходимо прибавить поправку, которая в Baker Lake Airport равна -6 ч.

Смотрите также архив погоды в соседних городах и на ближайших метеорологических станциях:

Погода в Baker Lake Climate (Канада) (4 км)
Погода в Back River MAPS (Канада) (199 км)
Погода в Rankin Inlet (Канада) (256 км)
Погода в Dubawnt Lake (Канада) (302 км)
Погода в Robertson Lake (Канада) (314 км)
Погода в Wager Bay (Канада) (357 км)
Погода в Arviat Climate (Канада) (370 км)
Погода в Arviat (Канада) (370 км)
Погода в Arviat Airport (Канада) (371 км)
Погода в Hanbury River ARS (Канада) (451 км)

Пояснения к столбцам:

Ветер - указаны скорость ветра в м/с - средняя за 10 мин, порывы в срок и между сроками (в фигурных скобках) и направление, откуда дует ветер: С - северный, СВ - северо-восточный, В - восточный, ЮВ - юго-восточный, Ю - южный, ЮЗ - юго-западный, З - западный, СЗ - северо-западный.
Видимость - горизонтальная дальность видимости в метрах или километрах. При видимости от 1 до 10 км при отсутствии осадков обычно наблюдается дымка, при ухудшении видимости до 1 км и менее - туман. В сухую погоду видимость может ухудшаться дымом, пылью или мглою.
Явления - указаны атмосферные явления, наблюдавшиеся в срок или в последний час перед сроком; фигурными скобками обозначены явления, наблюдавшиеся между сроками (за 1-3 часа до срока); квадратными скобками обозначены град или гололедные отложения с указанием их диаметра в мм.
Облачность - указаны через наклонную черту общая и нижняя облачность в баллах и высота нижней границы облаков в метрах; квадратными скобками обозначены формы облаков: Ci - перистые, Cs - перисто-слоистые, Cc - перисто-кучевые, Ac - высококучевые, As - высокослоистые, Sc - слоисто-кучевые, Ns - слоисто-дождевые, Cu - кучевые, Cb - кучево-дождевые. Подробнее классификацию облаков см. в Атласе облаков (PDF).
T - Температура воздуха - температура, измеренная на высоте 2 м над землей.
Td - Температура точки росы - температура, при понижении до которой содержащийся в воздухе водяной пар достигнет насыщения.
f - Относительная влажность воздуха - влажноcть воздуха, измеренная на высоте 2 м над землей.
Te - Эффективная температура - температура, которую ощущает одетый по сезону человек в тени. Характеристика душности погоды. При расчете учитывается влияние влажности воздуха и скорости ветра на теплоощущения человека.
Tes - Эффективная температура на солнце - температура, которую ощущает человек, с поправкой на солнечный нагрев. Характеристика знойности погоды. Зависит от высоты солнца над горизонтом, облачности и скорости ветра. Ночью, в пасмурную погоду, а также при ветре 12 м/с и более поправка равна нулю.
P - Атмосферное давление - приведенное к уровню моря атмосферное давление.
Po - Атмосферное давление - измеренное на уровне метеостанции атмосферное давление.
Tmin - Минимальная температура - минимум температуры воздуха на высоте 2 м над землей.
Tmax - Максимальная температура - максимум температуры воздуха на высоте 2 м над землей.
R - Количество осадков - Количество выпавших осадков за период времени, мм. При наведении курсора мыши на число - период времени, за который выпало указанное количество осадков.
R24 - Количество осадков - Количество выпавших осадков за 24 часа, мм.
S - Снежный покров - Высота снежного покрова, см. При наведении курсора мыши на число - состояние снежного покрова и степень покрытия местности в баллах.